METEOR 2-17 DEB

Satellite information

Favourite Embed

Satellite Type and Status

DEBRISIN ORBIT

Key statistics

Satellite METEOR 2-17 DEB at a glance.

Uptime

13832

Days in orbit

Revolutions

≈ 14.0

Per day

Orbit

LEO

Low Earth Orbit

Inclination

82.5

Latest

Satellite identification and parameters

Extended collection of information and parameters for METEOR 2-17 DEB.

Object identification

Identified? True

Debris? True

Object name: METEOR 2-17 DEB

International designator: 1988-005Y

Object number (NORAD): 35364

Object ID (CCSDS): 35364

Country: COMMONWEALTH OF INDEPENDENT STATES (CIS)

Current information (Y/N): Y

RCS size: SMALL

Orbital parameters

Period: 102.71 minutes

Inclination: 82.5485 deg

SMA: 7265.007 km

Apoapsis: 903.532 km

Periapsis: 870.211 km

RAAN: 57.1924 deg

Eccentricy: 0.0022933

Argument of periapsis: 316.8407 deg

Mean anomaly: 107.4456 deg

Mean motion: 14.02002351 rev/day

Mean motion (dot): 0.00002072 rev/day2

B* drag term: 0.0013469 1/REarth

Two-line elements (TLE)

Creation date: Dec. 10, 2025, 10:36 p.m.

Reference frame: TEME

Reference center: EARTH

Epoch: Dec. 10, 2025, 1:02 p.m. UTC

TLE line 0: 0 METEOR 2-17 DEB

TLE line 1: 1 35364U 88005Y 25344.54308168 .00002072 00000-0 13469-2 0 9991

TLE line 2: 2 35364 82.5485 57.1924 0022933 316.8407 107.4456 14.02002351524322

Live tracking on map

Real-time ground track for satellite METEOR 2-17 DEB.

In-orbit conjunctions

A list of the most updated potential collisions computed for object METEOR 2-17 DEB.

Target Orbit TCA Probability of collision Miss distance Type
LANDSAT 1 (ERTS 1) SSO 2025-09-30 21:02:23 0.0002095956 103.0 (m) PAYLOAD
COSMOS 2251 DEB LEO 2025-08-10 12:09:07 0.0001299453 316.0 (m) DEBRIS
TIMATION 1 LEO 2025-04-22 19:08:16 0.0002940142 47.0 (m) PAYLOAD
CZ-6A DEB LEO 2025-01-20 15:28:44 0.0002382545 484.0 (m) DEBRIS

Associated space launch

Second generation soviet meteorological satellite

METEOR 2-17 DEB was lifted into orbit during the mission ‘Tsiklon-3 | Meteor-2 17’, on board a Tsiklon-3 space rocket.

The launch took place on Jan. 30, 1988, 10:59 a.m. from 32/1.

For more information about the launch, click the button.

Launch to space Tsiklon-3 | Meteor-2 17
Tsiklon-3 | Meteor-2 17

Agency: N/A

Status: Launch Successful

Launch date: Jan. 30, 1988, 10:59 a.m. UTC

Rocket: Tsiklon-3

Launch pad: 32/1

Location: Plesetsk Cosmodrome, Russian Federation

...

Latest news about this satellite

There are no fresh news available about this satellite. Check back as we update our databases every day.


Newsletter sign-up

Weekly statistics, charts and insights to help you stay on top of the space industry.